Location: Alphaba - Cockrum - Ingrams Mill Volunteer Fire Department Station 2
(34.7915°N, 89.7598°W)
Time: 21:03:11
(UTC+00:00)

Daily predictions for brighter satellites

Satellite Brightness Start Highest point End
(mag) Time Altitude Azimuth Time Altitude Azimuth Time Altitude Azimuth
Cosmos 2221 3.5 12:05:36 10° N 12:09:36 48° E 12:13:35 10° SSE
OAO 2 Rocket 3.4 12:05:38 10° W 12:10:50 88° S 12:15:58 10° E
Cosmos 1758 Rocket 3.7 12:08:16 10° SSW 12:12:34 50° W 12:16:51 10° N
Cosmos 1484 Rocket 3.1 12:11:58 10° N 12:15:00 31° WNW 12:17:59 10° SW
BREEZE-M DEB (TANK) 4.2 12:12:19 10° SW 12:16:49 90° SE 12:35:54 10° NE
BREEZE-M DEB (TANK) 2.9 12:17:05 10° SW 12:22:11 77° NW 12:24:41 10° NE
Helios 1A Rocket 3.7 12:20:12 10° SSW 12:22:51 22° W 12:25:32 10° NW
Cosmos 1437 Rocket 3.7 12:20:05 10° N 12:23:25 44° E 12:26:44 10° SSE
ISS -2.8 12:21:13 10° SSW 12:24:29 52° SE 12:27:47 10° ENE
[s.n.66875] 1.2 12:25:22 10° WSW 12:27:53 89° NNW 12:30:26 10° ENE
[s.n.66873] 1.2 12:26:03 10° WSW 12:28:35 88° NNW 12:31:08 10° ENE
[s.n.66876] 1.2 12:26:31 10° WSW 12:29:03 87° NNW 12:31:36 10° ENE
OAO 3 Copernicus 4.3 12:25:36 10° W 12:30:38 90° N 12:35:39 10° E
Cosmos 2360 Rocket 2.3 12:25:36 10° NNW 12:31:06 58° WSW 12:36:35 10° S
Cosmos 1354 Rocket 4.1 23:09:38 10° SSW 23:14:55 90° NW 23:20:11 10° NNE
Cosmos 1980 Rocket 2.7 23:12:41 10° S 23:17:57 42° ESE 23:23:14 10° NE
Cosmos 1743 2.3 23:15:18 10° N 23:18:32 82° W 23:21:45 10° S
SJ-12 4.3 23:17:55 10° SE 23:21:20 34° ENE 23:24:46 10° N
Cosmos-2242 4.4 23:18:49 10° SE 23:21:40 18° E 23:24:31 10° NE
CORIOLIS 4.1 23:17:58 10° SSE 23:23:16 72° ENE 23:28:35 10° N
Okean 1-7 Rocket 3.6 23:19:57 10° N 23:24:14 54° E 23:28:28 10° SSE
YAOGAN 1 4.3 23:22:37 10° E 23:24:18 12° ENE 23:25:59 10° NE
Cosmos 1602 Rocket 3.5 23:20:29 10° N 23:24:52 87° E 23:29:10 10° S
Cosmos 1898 Rocket 4.4 23:21:20 10° SSE 23:25:40 28° E 23:30:01 10° NE
IRIDIUM 104 4.3 23:24:35 10° N 23:29:50 86° E 23:35:03 10° S
SAR-Lupe-4 3.7 23:27:49 10° SSE 23:31:14 48° ENE 23:34:40 10° N
Meteor 1-25 Rocket 4.3 23:26:42 10° N 23:32:27 63° E 23:38:06 10° SSE
IGS 5A 4.5 23:29:01 10° S 23:32:50 48° W 23:36:40 10° NNW
SKYMED 2 4.2 23:29:46 10° NNE 23:33:46 35° E 23:37:44 10° SSE
Cosmos 2263 Rocket 3.2 23:30:20 10° N 23:34:47 23° ENE 23:39:15 10° ESE
Cosmos 2151 3.2 23:31:08 10° NNW 23:35:17 71° W 23:39:26 10° S
Cosmos 372 Rocket 4.3 23:32:03 10° S 23:36:59 47° ESE 23:41:53 10° NNE
SL-16 R/B 4.1 23:31:43 10° N 23:37:10 33° WNW 23:42:35 10° SW
IRS-1C 4.1 23:34:57 10° SSE 23:40:14 72° ENE 23:45:33 10° N
NOSS 2-3 (C) 3.8 23:37:51 10° SW 23:41:19 48° WNW 23:44:42 10° NNE
SAR-Lupe-1 4.1 23:38:48 10° SSE 23:42:20 59° ENE 23:45:53 10° N
Cosmos 1937 Rocket 4.3 23:39:35 10° SSE 23:44:04 30° E 23:47:52 13° NE
Helios 1A Rocket 3.9 23:46:13 18° E 23:46:56 19° E 23:49:26 10° SE
Cosmos 1953 Rocket 4.0 23:44:38 10° N 23:48:51 40° E 23:53:01 10° SSE
MOS 1 Rocket 3.3 23:44:38 10° SSE 23:49:23 68° ENE 23:54:27 10° N
Cosmos 2227 Rocket 2.2 23:46:23 10° NNW 23:51:58 58° ENE 23:57:30 10° SE
Cosmos 2084 Rocket 3.3 23:48:14 10° NNW 23:52:27 75° ENE 23:56:38 10° SE
EXPRESS MD2 3.8 23:51:05 10° W 23:53:15 29° NNW 23:55:08 16° NNE
CZ-2D R/B 4.1 23:52:11 10° SE 23:55:57 32° ENE 23:59:39 10° N
